Year,Month,Day,Hour,Minute,Value (Times are PST for temperature in C)
2013,05,05,00,00,14.70
2013,05,05,00,01,14.70
2013,05,05,00,02,14.70
2013,05,05,00,03,14.70
2013,05,05,00,04,14.60
2013,05,05,00,05,14.60
2013,05,05,00,06,14.60
2013,05,05,00,07,14.50
2013,05,05,00,08,14.50
2013,05,05,00,09,14.40
2013,05,05,00,10,14.40
2013,05,05,00,11,14.30
2013,05,05,00,12,14.30
2013,05,05,00,13,14.30
2013,05,05,00,14,14.30
2013,05,05,00,15,14.30
2013,05,05,00,16,14.30
2013,05,05,00,17,14.30
2013,05,05,00,18,14.30
2013,05,05,00,19,14.20
2013,05,05,00,20,14.20
2013,05,05,00,21,14.20
2013,05,05,00,22,14.20
2013,05,05,00,23,14.20
2013,05,05,00,24,14.20
2013,05,05,00,25,14.20
2013,05,05,00,26,14.20
2013,05,05,00,27,14.20
2013,05,05,00,28,14.10
2013,05,05,00,29,14.10
2013,05,05,00,30,14.10
2013,05,05,00,31,14.10
2013,05,05,00,32,14.10
2013,05,05,00,33,14.10
2013,05,05,00,34,14.00
2013,05,05,00,35,14.00
2013,05,05,00,36,14.00
2013,05,05,00,37,13.90
2013,05,05,00,38,13.90
2013,05,05,00,39,13.90
2013,05,05,00,40,13.80
2013,05,05,00,41,13.80
2013,05,05,00,42,13.80
2013,05,05,00,43,13.80
2013,05,05,00,44,13.80
2013,05,05,00,45,13.70
2013,05,05,00,46,13.70
2013,05,05,00,47,13.70
2013,05,05,00,48,13.70
2013,05,05,00,49,13.70
2013,05,05,00,50,13.70
2013,05,05,00,51,13.70
2013,05,05,00,52,13.70
2013,05,05,00,53,13.70
2013,05,05,00,54,13.70
2013,05,05,00,55,13.70
2013,05,05,00,56,13.70
2013,05,05,00,57,13.60
2013,05,05,00,58,13.60
2013,05,05,00,59,13.60
2013,05,05,01,00,13.60
2013,05,05,01,01,13.60
2013,05,05,01,02,13.60
2013,05,05,01,03,13.50
2013,05,05,01,04,13.50
2013,05,05,01,05,13.50
2013,05,05,01,06,13.50
2013,05,05,01,07,13.50
2013,05,05,01,08,13.40
2013,05,05,01,09,13.40
2013,05,05,01,10,13.40
2013,05,05,01,11,13.40
2013,05,05,01,12,13.40
2013,05,05,01,13,13.40
2013,05,05,01,14,13.40
2013,05,05,01,15,13.40
2013,05,05,01,16,13.40
2013,05,05,01,17,13.40
2013,05,05,01,18,13.40
2013,05,05,01,19,13.40
2013,05,05,01,20,13.30
2013,05,05,01,21,13.30
2013,05,05,01,22,13.30
2013,05,05,01,23,13.30
2013,05,05,01,24,13.30
2013,05,05,01,25,13.30
2013,05,05,01,26,13.20
2013,05,05,01,27,13.20
2013,05,05,01,28,13.20
2013,05,05,01,29,13.20
2013,05,05,01,30,13.20
2013,05,05,01,31,13.10
2013,05,05,01,32,13.10
2013,05,05,01,33,13.10
2013,05,05,01,34,13.10
2013,05,05,01,35,13.10
2013,05,05,01,36,13.10
2013,05,05,01,37,13.10
2013,05,05,01,38,13.00
2013,05,05,01,39,13.00
2013,05,05,01,40,13.00
2013,05,05,01,41,13.00
2013,05,05,01,42,13.00
2013,05,05,01,43,13.00
2013,05,05,01,44,12.90
2013,05,05,01,45,13.00
2013,05,05,01,46,13.00
2013,05,05,01,47,13.00
2013,05,05,01,48,13.00
2013,05,05,01,49,13.00
2013,05,05,01,50,13.00
2013,05,05,01,51,13.00
2013,05,05,01,52,13.00
2013,05,05,01,53,13.00
2013,05,05,01,54,13.00
2013,05,05,01,55,12.90
2013,05,05,01,56,12.90
2013,05,05,01,57,12.90
2013,05,05,01,58,12.90
2013,05,05,01,59,12.90
2013,05,05,02,00,12.80
2013,05,05,02,01,12.80
2013,05,05,02,02,12.80
2013,05,05,02,03,12.80
2013,05,05,02,04,12.70
2013,05,05,02,05,12.70
2013,05,05,02,06,12.60
2013,05,05,02,07,12.60
2013,05,05,02,08,12.60
2013,05,05,02,09,12.60
2013,05,05,02,10,12.60
2013,05,05,02,11,12.60
2013,05,05,02,12,12.60
2013,05,05,02,13,12.60
2013,05,05,02,14,12.60
2013,05,05,02,15,12.60
2013,05,05,02,16,12.50
2013,05,05,02,17,12.50
2013,05,05,02,18,12.50
2013,05,05,02,19,12.50
2013,05,05,02,20,12.50
2013,05,05,02,21,12.50
2013,05,05,02,22,12.50
2013,05,05,02,23,12.50
2013,05,05,02,24,12.50
2013,05,05,02,25,12.50
2013,05,05,02,26,12.50
2013,05,05,02,27,12.50
2013,05,05,02,28,12.50
2013,05,05,02,29,12.50
2013,05,05,02,30,12.50
2013,05,05,02,31,12.50
2013,05,05,02,32,12.50
2013,05,05,02,33,12.50
2013,05,05,02,34,12.50
2013,05,05,02,35,12.50
2013,05,05,02,36,12.50
2013,05,05,02,37,12.50
2013,05,05,02,38,12.60
2013,05,05,02,39,12.60
2013,05,05,02,40,12.60
2013,05,05,02,41,12.60
2013,05,05,02,42,12.60
2013,05,05,02,43,12.60
2013,05,05,02,44,12.60
2013,05,05,02,45,12.50
2013,05,05,02,46,12.50
2013,05,05,02,47,12.50
2013,05,05,02,48,12.50
2013,05,05,02,49,12.60
2013,05,05,02,50,12.60
2013,05,05,02,51,12.70
2013,05,05,02,52,12.70
2013,05,05,02,53,12.70
2013,05,05,02,54,12.70
2013,05,05,02,55,12.70
2013,05,05,02,56,12.70
2013,05,05,02,57,12.80
2013,05,05,02,58,12.80
2013,05,05,02,59,12.80
2013,05,05,03,00,12.80
2013,05,05,03,01,12.80
2013,05,05,03,02,12.80
2013,05,05,03,03,12.80
2013,05,05,03,04,12.80
2013,05,05,03,05,12.90
2013,05,05,03,06,12.90
2013,05,05,03,07,12.90
2013,05,05,03,08,12.90
2013,05,05,03,09,12.90
2013,05,05,03,10,13.00
2013,05,05,03,11,13.00
2013,05,05,03,12,13.00
2013,05,05,03,13,12.90
2013,05,05,03,14,12.90
2013,05,05,03,15,12.90
2013,05,05,03,16,12.90
2013,05,05,03,17,12.90
2013,05,05,03,18,12.90
2013,05,05,03,19,12.90
2013,05,05,03,20,12.80
2013,05,05,03,21,12.80
2013,05,05,03,22,12.80
2013,05,05,03,23,12.80
2013,05,05,03,24,12.80
2013,05,05,03,25,12.80
2013,05,05,03,26,12.80
2013,05,05,03,27,12.80
2013,05,05,03,28,12.80
2013,05,05,03,29,12.80
2013,05,05,03,30,12.80
2013,05,05,03,31,12.80
2013,05,05,03,32,12.70
2013,05,05,03,33,12.60
2013,05,05,03,34,12.50
2013,05,05,03,35,12.40
2013,05,05,03,36,12.30
2013,05,05,03,37,12.20
2013,05,05,03,38,12.20
2013,05,05,03,39,12.10
2013,05,05,03,40,12.10
2013,05,05,03,41,12.00
2013,05,05,03,42,12.00
2013,05,05,03,43,12.00
2013,05,05,03,44,11.90
2013,05,05,03,45,11.90
2013,05,05,03,46,12.00
2013,05,05,03,47,12.00
2013,05,05,03,48,12.00
2013,05,05,03,49,12.00
2013,05,05,03,50,12.00
2013,05,05,03,51,12.00
2013,05,05,03,52,12.00
2013,05,05,03,53,12.00
2013,05,05,03,54,12.00
2013,05,05,03,55,12.00
2013,05,05,03,56,12.00
2013,05,05,03,57,12.00
2013,05,05,03,58,12.00
2013,05,05,03,59,12.00
2013,05,05,04,00,12.00
2013,05,05,04,01,12.00
2013,05,05,04,02,12.00
2013,05,05,04,03,12.00
2013,05,05,04,04,11.90
2013,05,05,04,05,11.90
2013,05,05,04,06,11.90
2013,05,05,04,07,11.90
2013,05,05,04,08,11.90
2013,05,05,04,09,11.90
2013,05,05,04,10,11.90
2013,05,05,04,11,11.90
2013,05,05,04,12,11.90
2013,05,05,04,13,11.90
2013,05,05,04,14,11.90
2013,05,05,04,15,11.90
2013,05,05,04,16,11.90
2013,05,05,04,17,11.90
2013,05,05,04,18,11.90
2013,05,05,04,19,11.90
2013,05,05,04,20,11.90
2013,05,05,04,21,11.90
2013,05,05,04,22,11.90
2013,05,05,04,23,11.90
2013,05,05,04,24,11.90
2013,05,05,04,25,11.90
2013,05,05,04,26,11.90
2013,05,05,04,27,11.90
2013,05,05,04,28,11.90
2013,05,05,04,29,11.90
2013,05,05,04,30,11.90
2013,05,05,04,31,12.00
2013,05,05,04,32,12.00
2013,05,05,04,33,12.00
2013,05,05,04,34,12.00
2013,05,05,04,35,12.00
2013,05,05,04,36,12.00
2013,05,05,04,37,12.00
2013,05,05,04,38,12.00
2013,05,05,04,39,12.00
2013,05,05,04,40,12.00
2013,05,05,04,41,12.00
2013,05,05,04,42,12.00
2013,05,05,04,43,12.00
2013,05,05,04,44,12.00
2013,05,05,04,45,12.00
2013,05,05,04,46,12.00
2013,05,05,04,47,11.90
2013,05,05,04,48,11.90
2013,05,05,04,49,11.90
2013,05,05,04,50,11.80
2013,05,05,04,51,11.80
2013,05,05,04,52,11.70
2013,05,05,04,53,11.70
2013,05,05,04,54,11.70
2013,05,05,04,55,11.60
2013,05,05,04,56,11.60
2013,05,05,04,57,11.60
2013,05,05,04,58,11.60
2013,05,05,04,59,11.60
2013,05,05,05,00,11.60
2013,05,05,05,01,11.60
2013,05,05,05,02,11.50
2013,05,05,05,03,11.50
2013,05,05,05,04,11.50
2013,05,05,05,05,11.60
2013,05,05,05,06,11.60
2013,05,05,05,07,11.60
2013,05,05,05,08,11.60
2013,05,05,05,09,11.60
2013,05,05,05,10,11.60
2013,05,05,05,11,11.60
2013,05,05,05,12,11.60
2013,05,05,05,13,11.60
2013,05,05,05,14,11.60
2013,05,05,05,15,11.60
2013,05,05,05,16,11.60
2013,05,05,05,17,11.60
2013,05,05,05,18,11.60
2013,05,05,05,19,11.60
2013,05,05,05,20,11.60
2013,05,05,05,21,11.60
2013,05,05,05,22,11.60
2013,05,05,05,23,11.60
2013,05,05,05,24,11.50
2013,05,05,05,25,11.50
2013,05,05,05,26,11.50
2013,05,05,05,27,11.40
2013,05,05,05,28,11.40
2013,05,05,05,29,11.40
2013,05,05,05,30,11.40
2013,05,05,05,31,11.40
2013,05,05,05,32,11.40
2013,05,05,05,33,11.40
2013,05,05,05,34,11.40
2013,05,05,05,35,11.30
2013,05,05,05,36,11.30
2013,05,05,05,37,11.30
2013,05,05,05,38,11.30
2013,05,05,05,39,11.30
2013,05,05,05,40,11.30
2013,05,05,05,41,11.30
2013,05,05,05,42,11.30
2013,05,05,05,43,11.30
2013,05,05,05,44,11.30
2013,05,05,05,45,11.30
2013,05,05,05,46,11.40
2013,05,05,05,47,11.40
2013,05,05,05,48,11.40
2013,05,05,05,49,11.40
2013,05,05,05,50,11.40
2013,05,05,05,51,11.40
2013,05,05,05,52,11.40
2013,05,05,05,53,11.40
2013,05,05,05,54,11.40
2013,05,05,05,55,11.40
2013,05,05,05,56,11.40
2013,05,05,05,57,11.40
2013,05,05,05,58,11.50
2013,05,05,05,59,11.50
2013,05,05,06,00,11.60
2013,05,05,06,01,11.60
2013,05,05,06,02,11.70
2013,05,05,06,03,11.70
2013,05,05,06,04,11.70
2013,05,05,06,05,11.70
2013,05,05,06,06,11.70
2013,05,05,06,07,11.70
2013,05,05,06,08,11.80
2013,05,05,06,09,11.80
2013,05,05,06,10,11.80
2013,05,05,06,11,11.90
2013,05,05,06,12,11.90
2013,05,05,06,13,12.00
2013,05,05,06,14,12.00
2013,05,05,06,15,12.00
2013,05,05,06,16,12.10
2013,05,05,06,17,12.10
2013,05,05,06,18,12.10
2013,05,05,06,19,12.20
2013,05,05,06,20,12.20
2013,05,05,06,21,12.20
2013,05,05,06,22,12.20
2013,05,05,06,23,12.20
2013,05,05,06,24,12.20
2013,05,05,06,25,12.20
2013,05,05,06,26,12.20
2013,05,05,06,27,12.30
2013,05,05,06,28,12.30
2013,05,05,06,29,12.30
2013,05,05,06,30,12.40
2013,05,05,06,31,12.40
2013,05,05,06,32,12.40
2013,05,05,06,33,12.50
2013,05,05,06,34,12.50
2013,05,05,06,35,12.60
2013,05,05,06,36,12.60
2013,05,05,06,37,12.60
2013,05,05,06,38,12.60
2013,05,05,06,39,12.60
2013,05,05,06,40,12.60
2013,05,05,06,41,12.60
2013,05,05,06,42,12.60
2013,05,05,06,43,12.60
2013,05,05,06,44,12.60
2013,05,05,06,45,12.60
2013,05,05,06,46,12.70
2013,05,05,06,47,12.70
2013,05,05,06,48,12.70
2013,05,05,06,49,12.80
2013,05,05,06,50,12.80
2013,05,05,06,51,12.80
2013,05,05,06,52,12.80
2013,05,05,06,53,12.80
2013,05,05,06,54,12.80
2013,05,05,06,55,12.80
2013,05,05,06,56,12.80
2013,05,05,06,57,12.70
2013,05,05,06,58,12.70
2013,05,05,06,59,12.80
2013,05,05,07,00,12.80
2013,05,05,07,01,12.80
2013,05,05,07,02,12.80
2013,05,05,07,03,12.80
2013,05,05,07,04,12.80
2013,05,05,07,05,12.90
2013,05,05,07,06,12.90
2013,05,05,07,07,12.90
2013,05,05,07,08,13.00
2013,05,05,07,09,13.00
2013,05,05,07,10,13.10
2013,05,05,07,11,13.10
2013,05,05,07,12,13.10
2013,05,05,07,13,13.10
2013,05,05,07,14,13.20
2013,05,05,07,15,13.20
2013,05,05,07,16,13.20
2013,05,05,07,17,13.20
2013,05,05,07,18,13.30
2013,05,05,07,19,13.30
2013,05,05,07,20,13.30
2013,05,05,07,21,13.40
2013,05,05,07,22,13.40
2013,05,05,07,23,13.40
2013,05,05,07,24,13.50
2013,05,05,07,25,13.50
2013,05,05,07,26,13.60
2013,05,05,07,27,13.60
2013,05,05,07,28,13.70
2013,05,05,07,29,13.70
2013,05,05,07,30,13.80
2013,05,05,07,31,13.80
2013,05,05,07,32,13.90
2013,05,05,07,33,13.90
2013,05,05,07,34,14.00
2013,05,05,07,35,14.10
2013,05,05,07,36,14.20
2013,05,05,07,37,14.20
2013,05,05,07,38,14.30
2013,05,05,07,39,14.40
2013,05,05,07,40,14.50
2013,05,05,07,41,14.50
2013,05,05,07,42,14.60
2013,05,05,07,43,14.70
2013,05,05,07,44,14.70
2013,05,05,07,45,14.80
2013,05,05,07,46,14.80
2013,05,05,07,47,14.80
2013,05,05,07,48,14.90
2013,05,05,07,49,14.90
2013,05,05,07,50,15.00
2013,05,05,07,51,15.00
2013,05,05,07,52,15.00
2013,05,05,07,53,15.00
2013,05,05,07,54,15.00
2013,05,05,07,55,15.10
2013,05,05,07,56,15.20
2013,05,05,07,57,15.30
2013,05,05,07,58,15.40
2013,05,05,07,59,15.40
2013,05,05,08,00,15.50
2013,05,05,08,01,15.60
2013,05,05,08,02,15.70
2013,05,05,08,03,15.70
2013,05,05,08,04,15.80
2013,05,05,08,05,15.80
2013,05,05,08,06,15.90
2013,05,05,08,07,15.90
2013,05,05,08,08,16.00
2013,05,05,08,09,16.10
2013,05,05,08,10,16.10
2013,05,05,08,11,16.20
2013,05,05,08,12,16.40
2013,05,05,08,13,16.50
2013,05,05,08,14,16.60
2013,05,05,08,15,16.60
2013,05,05,08,16,16.70
2013,05,05,08,17,16.70
2013,05,05,08,18,16.80
2013,05,05,08,19,16.80
2013,05,05,08,20,16.90
2013,05,05,08,21,17.00
2013,05,05,08,22,17.00
2013,05,05,08,23,17.10
2013,05,05,08,24,17.20
2013,05,05,08,25,17.20
2013,05,05,08,26,17.30
2013,05,05,08,27,17.30
2013,05,05,08,28,17.40
2013,05,05,08,29,17.50
2013,05,05,08,30,17.50
2013,05,05,08,31,17.60
2013,05,05,08,32,17.60
2013,05,05,08,33,17.70
2013,05,05,08,34,17.70
2013,05,05,08,35,17.80
2013,05,05,08,36,17.80
2013,05,05,08,37,18.10
2013,05,05,08,38,18.30
2013,05,05,08,39,18.50
2013,05,05,08,40,18.70
2013,05,05,08,41,18.90
2013,05,05,08,42,19.00
2013,05,05,08,43,19.10
2013,05,05,08,44,19.20
2013,05,05,08,45,19.30
2013,05,05,08,46,19.40
2013,05,05,08,47,19.40
2013,05,05,08,48,19.30
2013,05,05,08,49,19.20
2013,05,05,08,50,19.10
2013,05,05,08,51,18.90
2013,05,05,08,52,18.80
2013,05,05,08,53,18.70
2013,05,05,08,54,18.70
2013,05,05,08,55,18.60
2013,05,05,08,56,18.60
2013,05,05,08,57,18.50
2013,05,05,08,58,18.20
2013,05,05,08,59,17.90
2013,05,05,09,00,17.80
2013,05,05,09,01,17.80
2013,05,05,09,02,17.90
2013,05,05,09,03,18.10
2013,05,05,09,04,18.30
2013,05,05,09,05,18.50
2013,05,05,09,06,18.60
2013,05,05,09,07,18.60
2013,05,05,09,08,18.60
2013,05,05,09,09,18.50
2013,05,05,09,10,18.50
2013,05,05,09,11,18.50
2013,05,05,09,12,18.50
2013,05,05,09,13,18.40
2013,05,05,09,14,18.50
2013,05,05,09,15,18.60
2013,05,05,09,16,18.70
2013,05,05,09,17,18.80
2013,05,05,09,18,18.90
2013,05,05,09,19,19.00
2013,05,05,09,20,19.10
2013,05,05,09,21,19.00
2013,05,05,09,22,18.90
2013,05,05,09,23,18.60
2013,05,05,09,24,18.40
2013,05,05,09,25,18.30
2013,05,05,09,26,18.10
2013,05,05,09,27,18.00
2013,05,05,09,28,18.00
2013,05,05,09,29,17.80
2013,05,05,09,30,17.60
2013,05,05,09,31,17.50
2013,05,05,09,32,17.40
2013,05,05,09,33,17.40
2013,05,05,09,34,17.30
2013,05,05,09,35,17.20
2013,05,05,09,36,17.10
2013,05,05,09,37,17.10
2013,05,05,09,38,17.10
2013,05,05,09,39,17.10
2013,05,05,09,40,17.10
2013,05,05,09,41,17.10
2013,05,05,09,42,17.20
2013,05,05,09,43,17.30
2013,05,05,09,44,17.30
2013,05,05,09,45,17.40
2013,05,05,09,46,17.50
2013,05,05,09,47,17.50
2013,05,05,09,48,17.60
2013,05,05,09,49,17.60
2013,05,05,09,50,17.60
2013,05,05,09,51,17.60
2013,05,05,09,52,17.60
2013,05,05,09,53,17.60
2013,05,05,09,54,17.70
2013,05,05,09,55,17.80
2013,05,05,09,56,17.90
2013,05,05,09,57,17.90
2013,05,05,09,58,18.00
2013,05,05,09,59,18.00
2013,05,05,10,00,18.10
2013,05,05,10,01,18.20
2013,05,05,10,02,18.30
2013,05,05,10,03,18.40
2013,05,05,10,04,18.50
2013,05,05,10,05,18.60
2013,05,05,10,06,18.70
2013,05,05,10,07,18.80
2013,05,05,10,08,18.80
2013,05,05,10,09,18.90
2013,05,05,10,10,18.90
2013,05,05,10,11,18.90
2013,05,05,10,12,18.90
2013,05,05,10,13,18.80
2013,05,05,10,14,18.80
2013,05,05,10,15,18.70
2013,05,05,10,16,18.70
2013,05,05,10,17,18.80
2013,05,05,10,18,18.80
2013,05,05,10,19,18.90
2013,05,05,10,20,18.90
2013,05,05,10,21,18.90
2013,05,05,10,22,18.90
2013,05,05,10,23,19.00
2013,05,05,10,24,19.10
2013,05,05,10,25,19.10
2013,05,05,10,26,19.10
2013,05,05,10,27,19.10
2013,05,05,10,28,19.20
2013,05,05,10,29,19.20
2013,05,05,10,30,19.20
2013,05,05,10,31,19.30
2013,05,05,10,32,19.50
2013,05,05,10,33,19.60
2013,05,05,10,34,19.70
2013,05,05,10,35,19.70
2013,05,05,10,36,19.70
2013,05,05,10,37,19.70
2013,05,05,10,38,19.80
2013,05,05,10,39,19.80
2013,05,05,10,40,19.80
2013,05,05,10,41,19.80
2013,05,05,10,42,19.80
2013,05,05,10,43,19.80
2013,05,05,10,44,19.80
2013,05,05,10,45,19.80
2013,05,05,10,46,19.80
2013,05,05,10,47,19.80
2013,05,05,10,48,19.80
2013,05,05,10,49,19.80
2013,05,05,10,50,19.80
2013,05,05,10,51,19.80
2013,05,05,10,52,19.80
2013,05,05,10,53,19.90
2013,05,05,10,54,19.90
2013,05,05,10,55,19.90
2013,05,05,10,56,19.80
2013,05,05,10,57,19.80
2013,05,05,10,58,19.80
2013,05,05,10,59,19.80
2013,05,05,11,00,19.90
2013,05,05,11,01,19.90
2013,05,05,11,02,19.90
2013,05,05,11,03,20.00
2013,05,05,11,04,20.10
2013,05,05,11,05,20.20
2013,05,05,11,06,20.20
2013,05,05,11,07,20.20
2013,05,05,11,08,20.20
2013,05,05,11,09,20.30
2013,05,05,11,10,20.30
2013,05,05,11,11,20.30
2013,05,05,11,12,20.40
2013,05,05,11,13,20.50
2013,05,05,11,14,20.50
2013,05,05,11,15,20.50
2013,05,05,11,16,20.40
2013,05,05,11,17,20.40
2013,05,05,11,18,20.40
2013,05,05,11,19,20.40
2013,05,05,11,20,20.40
2013,05,05,11,21,20.30
2013,05,05,11,22,20.30
2013,05,05,11,23,20.30
2013,05,05,11,24,20.20
2013,05,05,11,25,20.20
2013,05,05,11,26,20.30
2013,05,05,11,27,20.20
2013,05,05,11,28,20.30
2013,05,05,11,29,20.40
2013,05,05,11,30,20.40
2013,05,05,11,31,20.50
2013,05,05,11,32,20.70
2013,05,05,11,33,20.80
2013,05,05,11,34,20.90
2013,05,05,11,35,20.90
2013,05,05,11,36,21.00
2013,05,05,11,37,21.00
2013,05,05,11,38,21.00
2013,05,05,11,39,20.90
2013,05,05,11,40,20.80
2013,05,05,11,41,20.80
2013,05,05,11,42,20.70
2013,05,05,11,43,20.60
2013,05,05,11,44,20.50
2013,05,05,11,45,20.50
2013,05,05,11,46,20.60
2013,05,05,11,47,20.70
2013,05,05,11,48,20.80
2013,05,05,11,49,20.90
2013,05,05,11,50,20.90
2013,05,05,11,51,21.00
2013,05,05,11,52,21.00
2013,05,05,11,53,21.00
2013,05,05,11,54,21.00
2013,05,05,11,55,21.10
2013,05,05,11,56,21.10
2013,05,05,11,57,21.20
2013,05,05,11,58,21.20
2013,05,05,11,59,21.30
2013,05,05,12,00,21.30
2013,05,05,12,01,21.40
2013,05,05,12,02,21.50
2013,05,05,12,03,21.50
2013,05,05,12,04,21.50
2013,05,05,12,05,21.60
2013,05,05,12,06,21.70
2013,05,05,12,07,21.70
2013,05,05,12,08,21.70
2013,05,05,12,09,21.70
2013,05,05,12,10,21.70
2013,05,05,12,11,21.70
2013,05,05,12,12,21.70
2013,05,05,12,13,21.80
2013,05,05,12,14,21.80
2013,05,05,12,15,21.80
2013,05,05,12,16,21.80
2013,05,05,12,17,21.80
2013,05,05,12,18,21.80
2013,05,05,12,19,21.80
2013,05,05,12,20,21.90
2013,05,05,12,21,22.00
2013,05,05,12,22,22.10
2013,05,05,12,23,22.20
2013,05,05,12,24,22.30
2013,05,05,12,25,22.30
2013,05,05,12,26,22.30
2013,05,05,12,27,22.30
2013,05,05,12,28,22.30
2013,05,05,12,29,22.20
2013,05,05,12,30,22.10
2013,05,05,12,31,22.00
2013,05,05,12,32,21.90
2013,05,05,12,33,21.90
2013,05,05,12,34,21.90
2013,05,05,12,35,22.00
2013,05,05,12,36,22.10
2013,05,05,12,37,22.20
2013,05,05,12,38,22.20
2013,05,05,12,39,22.30
2013,05,05,12,40,22.30
2013,05,05,12,41,22.30
2013,05,05,12,42,22.40
2013,05,05,12,43,22.50
2013,05,05,12,44,22.50
2013,05,05,12,45,22.50
2013,05,05,12,46,22.40
2013,05,05,12,47,22.30
2013,05,05,12,48,22.10
2013,05,05,12,49,22.00
2013,05,05,12,50,21.90
2013,05,05,12,51,21.80
2013,05,05,12,52,21.80
2013,05,05,12,53,21.80
2013,05,05,12,54,21.80
2013,05,05,12,55,21.90
2013,05,05,12,56,22.00
2013,05,05,12,57,22.10
2013,05,05,12,58,22.00
2013,05,05,12,59,21.80
2013,05,05,13,00,21.70
2013,05,05,13,01,21.60
2013,05,05,13,02,21.60
2013,05,05,13,03,21.60
2013,05,05,13,04,21.60
2013,05,05,13,05,21.70
2013,05,05,13,06,21.80
2013,05,05,13,07,21.80
2013,05,05,13,08,21.80
2013,05,05,13,09,21.80
2013,05,05,13,10,21.80
2013,05,05,13,11,21.80
2013,05,05,13,12,21.80
2013,05,05,13,13,21.80
2013,05,05,13,14,21.80
2013,05,05,13,15,21.70
2013,05,05,13,16,21.70
2013,05,05,13,17,21.70
2013,05,05,13,18,21.70
2013,05,05,13,19,21.70
2013,05,05,13,20,21.70
2013,05,05,13,21,21.70
2013,05,05,13,22,21.80
2013,05,05,13,23,21.80
2013,05,05,13,24,21.80
2013,05,05,13,25,21.90
2013,05,05,13,26,22.10
2013,05,05,13,27,22.20
2013,05,05,13,28,22.30
2013,05,05,13,29,22.40
2013,05,05,13,30,22.50
2013,05,05,13,31,22.50
2013,05,05,13,32,22.60
2013,05,05,13,33,22.80
2013,05,05,13,34,22.90
2013,05,05,13,35,23.00
2013,05,05,13,36,23.10
2013,05,05,13,37,23.10
2013,05,05,13,38,23.10
2013,05,05,13,39,23.10
2013,05,05,13,40,23.20
2013,05,05,13,41,23.20
2013,05,05,13,42,23.10
2013,05,05,13,43,23.10
2013,05,05,13,44,23.10
2013,05,05,13,45,23.00
2013,05,05,13,46,22.90
2013,05,05,13,47,22.90
2013,05,05,13,48,23.00
2013,05,05,13,49,23.10
2013,05,05,13,50,23.10
2013,05,05,13,51,23.10
2013,05,05,13,52,23.00
2013,05,05,13,53,23.00
2013,05,05,13,54,23.00
2013,05,05,13,55,23.10
2013,05,05,13,56,23.10
2013,05,05,13,57,23.00
2013,05,05,13,58,22.90
2013,05,05,13,59,22.70
2013,05,05,14,00,22.70
2013,05,05,14,01,22.70
2013,05,05,14,02,22.80
2013,05,05,14,03,22.80
2013,05,05,14,04,22.80
2013,05,05,14,05,22.90
2013,05,05,14,06,22.90
2013,05,05,14,07,23.00
2013,05,05,14,08,23.10
2013,05,05,14,09,23.10
2013,05,05,14,10,23.10
2013,05,05,14,11,23.10
2013,05,05,14,12,23.00
2013,05,05,14,13,23.00
2013,05,05,14,14,23.00
2013,05,05,14,15,23.00
2013,05,05,14,16,23.00
2013,05,05,14,17,23.10
2013,05,05,14,18,23.10
2013,05,05,14,19,23.00
2013,05,05,14,20,22.90
2013,05,05,14,21,22.80
2013,05,05,14,22,22.70
2013,05,05,14,23,22.50
2013,05,05,14,24,22.40
2013,05,05,14,25,22.30
2013,05,05,14,26,22.40
2013,05,05,14,27,22.40
2013,05,05,14,28,22.50
2013,05,05,14,29,22.70
2013,05,05,14,30,22.80
2013,05,05,14,31,22.90
2013,05,05,14,32,22.90
2013,05,05,14,33,22.90
2013,05,05,14,34,22.80
2013,05,05,14,35,22.80
2013,05,05,14,36,22.80
2013,05,05,14,37,22.80
2013,05,05,14,38,22.90
2013,05,05,14,39,22.90
2013,05,05,14,40,23.00
2013,05,05,14,41,23.00
2013,05,05,14,42,23.10
2013,05,05,14,43,23.20
2013,05,05,14,44,23.30
2013,05,05,14,45,23.50
2013,05,05,14,46,23.60
2013,05,05,14,47,23.60
2013,05,05,14,48,23.70
2013,05,05,14,49,23.80
2013,05,05,14,50,23.90
2013,05,05,14,51,23.90
2013,05,05,14,52,23.90
2013,05,05,14,53,23.90
2013,05,05,14,54,23.90
2013,05,05,14,55,24.00
2013,05,05,14,56,24.10
2013,05,05,14,57,24.10
2013,05,05,14,58,24.10
2013,05,05,14,59,24.10
2013,05,05,15,00,24.10
2013,05,05,15,01,24.00
2013,05,05,15,02,23.90
2013,05,05,15,03,23.90
2013,05,05,15,04,23.90
2013,05,05,15,05,24.00
2013,05,05,15,06,24.00
2013,05,05,15,07,24.10
2013,05,05,15,08,24.10
2013,05,05,15,09,24.10
2013,05,05,15,10,24.20
2013,05,05,15,11,24.30
2013,05,05,15,12,24.40
2013,05,05,15,13,24.40
2013,05,05,15,14,24.50
2013,05,05,15,15,24.60
2013,05,05,15,16,24.60
2013,05,05,15,17,24.70
2013,05,05,15,18,24.80
2013,05,05,15,19,24.90
2013,05,05,15,20,24.90
2013,05,05,15,21,25.00
2013,05,05,15,22,25.10
2013,05,05,15,23,25.20
2013,05,05,15,24,25.30
2013,05,05,15,25,25.30
2013,05,05,15,26,25.20
2013,05,05,15,27,25.10
2013,05,05,15,28,25.00
2013,05,05,15,29,24.90
2013,05,05,15,30,24.80
2013,05,05,15,31,24.80
2013,05,05,15,32,24.80
2013,05,05,15,33,24.80
2013,05,05,15,34,24.90
2013,05,05,15,35,24.90
2013,05,05,15,36,25.00
2013,05,05,15,37,25.10
2013,05,05,15,38,25.10
2013,05,05,15,39,25.10
2013,05,05,15,40,25.10
2013,05,05,15,41,25.00
2013,05,05,15,42,24.80
2013,05,05,15,43,24.80
2013,05,05,15,44,24.70
2013,05,05,15,45,24.80
2013,05,05,15,46,24.80
2013,05,05,15,47,24.90
2013,05,05,15,48,25.00
2013,05,05,15,49,25.10
2013,05,05,15,50,25.20
2013,05,05,15,51,25.20
2013,05,05,15,52,25.20
2013,05,05,15,53,25.20
2013,05,05,15,54,25.20
2013,05,05,15,55,25.10
2013,05,05,15,56,25.10
2013,05,05,15,57,25.00
2013,05,05,15,58,25.00
2013,05,05,15,59,25.10
2013,05,05,16,00,25.10
2013,05,05,16,01,25.10
2013,05,05,16,02,25.10
2013,05,05,16,03,25.10
2013,05,05,16,04,25.20
2013,05,05,16,05,25.20
2013,05,05,16,06,25.20
2013,05,05,16,07,25.20
2013,05,05,16,08,25.20
2013,05,05,16,09,25.20
2013,05,05,16,10,25.00
2013,05,05,16,11,25.00
2013,05,05,16,12,24.90
2013,05,05,16,13,24.80
2013,05,05,16,14,24.80
2013,05,05,16,15,24.90
2013,05,05,16,16,24.90
2013,05,05,16,17,25.00
2013,05,05,16,18,25.00
2013,05,05,16,19,25.00
2013,05,05,16,20,25.00
2013,05,05,16,21,25.10
2013,05,05,16,22,25.10
2013,05,05,16,23,25.20
2013,05,05,16,24,25.20
2013,05,05,16,25,25.30
2013,05,05,16,26,25.40
2013,05,05,16,27,25.50
2013,05,05,16,28,25.60
2013,05,05,16,29,25.60
2013,05,05,16,30,25.70
2013,05,05,16,31,25.60
2013,05,05,16,32,25.70
2013,05,05,16,33,25.70
2013,05,05,16,34,25.80
2013,05,05,16,35,25.80
2013,05,05,16,36,25.90
2013,05,05,16,37,25.90
2013,05,05,16,38,25.90
2013,05,05,16,39,25.90
2013,05,05,16,40,25.90
2013,05,05,16,41,25.90
2013,05,05,16,42,25.80
2013,05,05,16,43,25.80
2013,05,05,16,44,25.80
2013,05,05,16,45,25.80
2013,05,05,16,46,25.90
2013,05,05,16,47,25.90
2013,05,05,16,48,25.90
2013,05,05,16,49,25.90
2013,05,05,16,50,26.00
2013,05,05,16,51,26.10
2013,05,05,16,52,26.10
2013,05,05,16,53,26.20
2013,05,05,16,54,26.30
2013,05,05,16,55,26.30
2013,05,05,16,56,26.40
2013,05,05,16,57,26.40
2013,05,05,16,58,26.40
2013,05,05,16,59,26.50
2013,05,05,17,00,26.50
2013,05,05,17,01,26.60
2013,05,05,17,02,26.60
2013,05,05,17,03,26.60
2013,05,05,17,04,26.60
2013,05,05,17,05,26.60
2013,05,05,17,06,26.60
2013,05,05,17,07,26.50
2013,05,05,17,08,26.40
2013,05,05,17,09,26.30
2013,05,05,17,10,26.30
2013,05,05,17,11,26.30
2013,05,05,17,12,26.30
2013,05,05,17,13,26.40
2013,05,05,17,14,26.40
2013,05,05,17,15,26.50
2013,05,05,17,16,26.50
2013,05,05,17,17,26.60
2013,05,05,17,18,26.70
2013,05,05,17,19,26.80